N1OTX Weather Reports


Display with metric or nautical units.
time (UTC)temp
F
wind
direction
speed
MPH
gust
MPH
rain 1hr
in
rain 24hr
in
rain mn
in
humidity
%
barometer
mb
20240618000509 75 203 3.0 7.0 0.00 0.00 0.00 63 1020.7
20240618000009 75 203 3.0 6.0 0.00 0.00 0.00 64 1020.9
20240617235509 76 203 4.0 8.0 0.00 0.00 0.00 63 1020.8
20240617235009 76 203 5.0 13.0 0.00 0.00 0.00 64 1020.7
20240617234509 76 203 4.0 11.0 0.00 0.00 0.00 64 1020.7
20240617234040 76 203 1.0 4.0 0.00 0.00 0.00 65 1020.6
20240617233509 76 180 1.0 4.0 0.00 0.00 0.00 64 1020.6
20240617233009 76 180 2.0 5.0 0.00 0.00 0.00 64 1020.7
20240617232509 76 180 2.0 7.0 0.00 0.00 0.00 64 1020.6
20240617232010 76 203 3.0 10.0 0.00 0.00 0.00 63 1020.7
20240617231509 77 203 3.0 7.0 0.00 0.00 0.00 63 1020.5
20240617231039 77 203 4.0 14.0 0.00 0.00 0.00 64 1020.6
20240617230509 77 180 5.0 13.0 0.00 0.00 0.00 64 1020.6
20240617230009 77 203 3.0 8.0 0.00 0.00 0.00 64 1020.5
20240617225509 77 225 4.0 12.0 0.00 0.00 0.00 65 1020.5
20240617225009 77 203 3.0 10.0 0.00 0.00 0.00 66 1020.3
20240617224509 77 203 5.0 10.0 0.00 0.00 0.00 67 1020.3
20240617224009 77 203 3.0 8.0 0.00 0.00 0.00 68 1020.3
20240617223509 77 203 4.0 11.0 0.00 0.00 0.00 68 1020.2
20240617223009 77 180 3.0 7.0 0.00 0.00 0.00 69 1020.2
20240617222509 77 180 5.0 10.0 0.00 0.00 0.00 68 1020.3
20240617222009 77 180 5.0 10.0 0.00 0.00 0.00 68 1020.2
20240617221509 77 225 3.0 9.0 0.00 0.00 0.00 68 1020.2
20240617221009 77 158 4.0 11.0 0.00 0.00 0.00 68 1020.3
20240617220509 77 203 5.0 11.0 0.00 0.00 0.00 68 1020.2
20240617220009 77 203 5.0 12.0 0.00 0.00 0.00 67 1020.2
20240617215509 77 203 5.0 9.0 0.00 0.00 0.00 68 1020.3
20240617215039 77 158 4.0 10.0 0.00 0.00 0.00 67 1020.4
20240617214509 77 180 5.0 12.0 0.00 0.00 0.00 67 1020.3
20240617214009 77 203 6.0 14.0 0.00 0.00 0.00 67 1020.1
20240617213509 77 180 5.0 11.0 0.00 0.00 0.00 67 1020.2
20240617213039 77 203 6.0 11.0 0.00 0.00 0.00 67 1020.2
20240617212509 77 203 6.0 14.0 0.00 0.00 0.00 67 1020.2
20240617212039 77 180 5.0 10.0 0.00 0.00 0.00 66 1020.3
20240617211509 78 180 5.0 14.0 0.00 0.00 0.00 66 1020.2
20240617211009 78 158 4.0 10.0 0.00 0.00 0.00 65 1020.1
20240617210509 78 180 5.0 10.0 0.00 0.00 0.00 65 1020.2
20240617210009 78 203 4.0 9.0 0.00 0.00 0.00 65 1020.1
20240617205509 78 203 4.0 11.0 0.00 0.00 0.00 65 1020.1
20240617205009 79 135 5.0 11.0 0.00 0.00 0.00 65 1020.1
20240617204509 78 203 5.0 10.0 0.00 0.00 0.00 65 1020.2
20240617204009 78 158 4.0 10.0 0.00 0.00 0.00 65 1020.1
20240617203509 78 203 5.0 12.0 0.00 0.00 0.00 65 1020.2
20240617203009 78 203 4.0 10.0 0.00 0.00 0.00 65 1020.1
20240617202609 78 180 4.0 13.0 0.00 0.00 0.00 65 1020.0
20240617202009 77 158 4.0 11.0 0.00 0.00 0.00 66 1020.0
20240617201509 77 180 5.0 15.0 0.00 0.00 0.00 65 1019.9
20240617201009 77 180 5.0 14.0 0.00 0.00 0.00 65 1019.8
20240617200509 78 180 4.0 14.0 0.00 0.00 0.00 66 1019.9
20240617200039 78 180 4.0 11.0 0.00 0.00 0.00 66 1019.9
20240617195509 78 180 5.0 13.0 0.00 0.00 0.00 64 1019.9
20240617195009 79 203 5.0 15.0 0.00 0.00 0.00 63 1019.8
20240617194509 79 203 6.0 11.0 0.00 0.00 0.00 63 1019.9
20240617194109 79 203 5.0 9.0 0.00 0.00 0.00 65 1020.0
20240617193609 79 203 6.0 11.0 0.00 0.00 0.00 64 1020.2
20240617193009 79 180 6.0 12.0 0.00 0.00 0.00 64 1020.2
20240617192509 79 180 5.0 11.0 0.00 0.00 0.00 64 1020.3
20240617192009 80 180 5.0 12.0 0.00 0.00 0.00 63 1020.5
20240617191509 79 203 5.0 12.0 0.00 0.00 0.00 64 1020.6
20240617191009 79 203 4.0 14.0 0.00 0.00 0.00 64 1020.7
20240617190509 79 203 4.0 9.0 0.00 0.00 0.00 64 1020.7
20240617190009 78 203 4.0 11.0 0.00 0.00 0.00 65 1020.6
20240617185509 78 203 6.0 12.0 0.00 0.00 0.00 63 1020.6
20240617185009 78 203 2.0 5.0 0.00 0.00 0.00 65 1020.6
20240617184508 79 180 2.0 8.0 0.00 0.00 0.00 63 1020.7
20240617184039 79 180 4.0 13.0 0.00 0.00 0.00 61 1020.5
20240617183509 79 180 5.0 12.0 0.00 0.00 0.00 61 1020.6
20240617183009 80 203 5.0 11.0 0.00 0.00 0.00 61 1020.7
20240617182509 80 180 3.0 10.0 0.00 0.00 0.00 61 1020.7
20240617182009 80 203 5.0 12.0 0.00 0.00 0.00 60 1020.7
20240617181508 79 203 6.0 11.0 0.00 0.00 0.00 60 1020.7
20240617181008 79 203 5.0 15.0 0.00 0.00 0.00 62 1020.9
20240617180509 79 203 2.0 8.0 0.00 0.00 0.00 62 1021.0
20240617180009 79 203 6.0 13.0 0.00 0.00 0.00 61 1021.1
20240617175509 79 180 4.0 8.0 0.00 0.00 0.00 62 1021.2
20240617175009 80 203 6.0 15.0 0.00 0.00 0.00 58 1021.3
20240617174508 81 225 5.0 11.0 0.00 0.00 0.00 61 1021.2
20240617174009 80 180 4.0 14.0 0.00 0.00 0.00 60 1021.2
20240617173509 80 203 3.0 9.0 0.00 0.00 0.00 59 1021.1
20240617173009 81 158 3.0 11.0 0.00 0.00 0.00 60 1021.3
20240617172509 81 203 5.0 13.0 0.00 0.00 0.00 59 1021.4
20240617172009 80 203 6.0 12.0 0.00 0.00 0.00 58 1021.1
20240617171509 80 158 3.0 7.0 0.00 0.00 0.00 59 1021.1
20240617171009 80 225 4.0 11.0 0.00 0.00 0.00 60 1021.2
20240617170508 81 180 4.0 13.0 0.00 0.00 0.00 61 1021.0
20240617170009 80 158 5.0 11.0 0.00 0.00 0.00 60 1021.2
20240617165539 80 180 6.0 12.0 0.00 0.00 0.00 60 1021.1
20240617165009 79 203 7.0 15.0 0.00 0.00 0.00 59 1020.9
20240617164508 79 180 6.0 18.0 0.00 0.00 0.00 59 1021.0
20240617164039 79 180 7.0 20.0 0.00 0.00 0.00 60 1021.0
20240617163509 79 180 6.0 15.0 0.00 0.00 0.00 59 1020.9
20240617163009 79 203 5.0 14.0 0.00 0.00 0.00 60 1021.0
20240617162508 79 203 7.0 13.0 0.00 0.00 0.00 59 1021.0
20240617162008 78 203 6.0 16.0 0.00 0.00 0.00 60 1021.0
20240617161509 79 158 6.0 14.0 0.00 0.00 0.00 63 1021.1
20240617161008 78 203 8.0 14.0 0.00 0.00 0.00 61 1021.3
20240617160538 78 180 6.0 13.0 0.00 0.00 0.00 61 1021.3
20240617160008 78 225 6.0 14.0 0.00 0.00 0.00 60 1021.4
20240617155508 78 203 4.0 11.0 0.00 0.00 0.00 60 1021.5
20240617155008 78 113 4.0 11.0 0.00 0.00 0.00 61 1021.6
20240617154509 77 180 4.0 13.0 0.00 0.00 0.00 62 1021.7
20240617154008 77 203 5.0 14.0 0.00 0.00 0.00 62 1021.9
20240617153508 77 180 6.0 13.0 0.00 0.00 0.00 65 1021.8
20240617153008 76 135 7.0 16.0 0.00 0.00 0.00 62 1021.9
20240617152508 76 135 6.0 13.0 0.00 0.00 0.00 63 1022.1
20240617152008 76 158 6.0 18.0 0.00 0.00 0.00 63 1022.2
20240617151509 75 203 7.0 18.0 0.00 0.00 0.00 62 1022.0
20240617151038 75 203 5.0 12.0 0.00 0.00 0.00 65 1022.4
20240617150508 75 225 6.0 12.0 0.00 0.00 0.00 64 1022.5
20240617150009 75 203 6.0 12.0 0.00 0.00 0.00 63 1022.6
20240617145508 74 180 4.0 10.0 0.00 0.00 0.00 65 1022.7
20240617145039 74 203 5.0 10.0 0.00 0.00 0.00 65 1022.8
20240617144539 74 203 5.0 10.0 0.00 0.00 0.00 65 1022.9
20240617144008 73 180 4.0 8.0 0.00 0.00 0.00 66 1022.9
20240617143508 72 158 4.0 10.0 0.00 0.00 0.00 67 1023.0
20240617143008 72 203 4.0 10.0 0.00 0.00 0.00 68 1023.1
20240617142508 71 225 4.0 9.0 0.00 0.00 0.00 68 1023.0
20240617142008 72 158 4.0 11.0 0.00 0.00 0.00 67 1023.0
20240617141508 72 180 4.0 14.0 0.00 0.00 0.00 67 1023.1
20240617141008 72 180 3.0 10.0 0.00 0.00 0.00 68 1023.1
20240617140508 72 180 6.0 10.0 0.00 0.00 0.00 67 1023.0
20240617140008 72 180 4.0 8.0 0.00 0.00 0.00 68 1023.0
20240617135508 72 203 5.0 10.0 0.00 0.00 0.00 67 1023.0
20240617135008 72 180 4.0 8.0 0.00 0.00 0.00 68 1023.0
20240617134508 72 113 3.0 8.0 0.00 0.00 0.00 69 1023.1
20240617134008 72 158 5.0 10.0 0.00 0.00 0.00 70 1023.1
20240617133508 71 180 4.0 10.0 0.00 0.00 0.00 69 1023.1
20240617133038 71 180 6.0 11.0 0.00 0.00 0.00 68 1023.3
20240617132508 71 158 4.0 10.0 0.00 0.00 0.00 69 1023.3
20240617132109 71 203 4.0 9.0 0.00 0.00 0.00 70 1023.4
20240617131508 70 180 2.0 8.0 0.00 0.00 0.00 72 1023.6
20240617131008 70 203 3.0 9.0 0.00 0.00 0.00 71 1023.7
20240617130508 70 203 3.0 10.0 0.00 0.00 0.00 72 1023.7
20240617130008 69 203 5.0 12.0 0.00 0.00 0.00 72 1023.7
20240617125508 69 203 5.0 12.0 0.00 0.00 0.00 74 1023.7
20240617125008 68 203 5.0 11.0 0.00 0.00 0.00 74 1023.4
20240617124508 68 203 5.0 12.0 0.00 0.00 0.00 75 1023.7
20240617124008 68 180 5.0 14.0 0.00 0.00 0.00 75 1023.6
20240617123508 68 203 6.0 13.0 0.00 0.00 0.00 76 1023.7
20240617123038 67 180 4.0 10.0 0.00 0.00 0.00 77 1023.7
20240617122508 67 180 5.0 12.0 0.00 0.00 0.00 77 1023.8
20240617122008 66 203 5.0 10.0 0.00 0.00 0.00 79 1023.8
20240617121508 66 203 4.0 10.0 0.00 0.00 0.00 79 1023.8
20240617121041 65 135 3.0 10.0 0.00 0.00 0.00 80 1023.8
20240617120510 64 203 3.0 10.0 0.00 0.00 0.00 82 1023.7
20240617120010 63 203 4.0 9.0 0.00 0.00 0.00 83 1023.7
20240617115540 62 180 4.0 11.0 0.00 0.00 0.00 83 1023.7
20240617115010 62 180 3.0 8.0 0.00 0.00 0.00 83 1023.8
20240617114510 61 180 4.0 7.0 0.00 0.00 0.00 83 1023.9
20240617114010 61 203 3.0 5.0 0.00 0.00 0.00 83 1024.0
20240617113510 61 203 3.0 6.0 0.00 0.00 0.00 83 1023.9
20240617113010 61 180 2.0 5.0 0.00 0.00 0.00 82 1023.9
20240617112540 61 203 3.0 5.0 0.00 0.00 0.00 82 1023.9
20240617112010 61 180 3.0 7.0 0.00 0.00 0.00 81 1023.9
20240617111610 62 203 3.0 6.0 0.00 0.00 0.00 81 1024.0
20240617111008 62 203 3.0 7.0 0.00 0.00 0.00 81 1023.9
20240617110510 62 225 4.0 8.0 0.00 0.00 0.00 81 1024.0
20240617110010 61 180 3.0 7.0 0.00 0.00 0.00 83 1024.0
20240617105510 61 158 1.0 5.0 0.00 0.00 0.00 84 1024.0
20240617105040 60 180 3.0 5.0 0.00 0.00 0.00 84 1024.0
20240617104510 59 180 2.0 7.0 0.00 0.00 0.00 84 1023.9
20240617104010 59 180 1.0 5.0 0.00 0.00 0.00 84 1023.9
20240617103510 59 180 2.0 4.0 0.00 0.00 0.00 85 1023.9
20240617103010 58 180 1.0 6.0 0.00 0.00 0.00 85 1023.8
20240617102510 58 203 1.0 2.0 0.00 0.00 0.00 85 1023.7
20240617102010 58 0.0 2.0 0.00 0.00 0.00 85 1023.7
20240617101540 58 203 1.0 3.0 0.00 0.00 0.00 85 1023.6
20240617101010 58 203 2.0 4.0 0.00 0.00 0.00 85 1023.4
20240617100510 58 225 1.0 5.0 0.00 0.00 0.00 85 1023.4
20240617100010 58 203 2.0 4.0 0.00 0.00 0.00 85 1023.3
20240617095540 58 203 2.0 4.0 0.00 0.00 0.00 85 1023.4
20240617095010 57 180 1.0 4.0 0.00 0.00 0.00 85 1023.3
20240617094510 57 203 1.0 4.0 0.00 0.00 0.00 85 1023.4
20240617094010 57 203 1.0 4.0 0.00 0.00 0.00 85 1023.3
20240617093510 57 0.0 2.0 0.00 0.00 0.00 85 1023.4
20240617093040 57 203 1.0 3.0 0.00 0.00 0.00 85 1023.5
20240617092510 57 0.0 3.0 0.00 0.00 0.00 85 1023.6
20240617092010 57 0.0 1.0 0.00 0.00 0.00 86 1023.6
20240617091610 56 0.0 3.0 0.00 0.00 0.00 85 1023.7
20240617091010 56 203 1.0 3.0 0.00 0.00 0.00 85 1023.8
20240617090510 56 0.0 2.0 0.00 0.00 0.00 85 1023.8
20240617090010 56 0.0 0.0 0.00 0.00 0.00 85 1023.8
20240617085510 56 0.0 0.0 0.00 0.00 0.00 85 1023.9
20240617085010 57 0.0 1.0 0.00 0.00 0.00 85 1023.9
20240617084510 57 0.0 0.0 0.00 0.00 0.00 84 1023.9
20240617084010 57 0.0 1.0 0.00 0.00 0.00 84 1023.8
20240617083510 57 0.0 0.0 0.00 0.00 0.00 84 1023.8
20240617083009 57 0.0 2.0 0.00 0.00 0.00 84 1023.8
20240617082509 57 0.0 1.0 0.00 0.00 0.00 84 1023.7
20240617082010 57 0.0 1.0 0.00 0.00 0.00 83 1023.7
20240617081509 57 0.0 1.0 0.00 0.00 0.00 82 1023.6
20240617081110 57 0.0 1.0 0.00 0.00 0.00 82 1023.5
20240617080510 58 0.0 0.0 0.00 0.00 0.00 82 1023.6
20240617080010 58 0.0 1.0 0.00 0.00 0.00 81 1023.6
20240617075540 58 0.0 0.0 0.00 0.00 0.00 80 1023.6
20240617075010 59 0.0 2.0 0.00 0.00 0.00 80 1023.6
20240617074510 59 0.0 3.0 0.00 0.00 0.00 79 1023.7
20240617074110 59 0.0 2.0 0.00 0.00 0.00 78 1023.5
20240617073509 59 203 1.0 4.0 0.00 0.00 0.00 78 1023.6
20240617073040 60 0.0 2.0 0.00 0.00 0.00 78 1023.6
20240617072510 60 0.0 2.0 0.00 0.00 0.00 77 1023.6
20240617072010 60 203 2.0 5.0 0.00 0.00 0.00 77 1023.7
20240617071540 60 203 1.0 4.0 0.00 0.00 0.00 76 1023.7
20240617071010 61 203 1.0 4.0 0.00 0.00 0.00 76 1023.6
20240617070510 61 180 2.0 5.0 0.00 0.00 0.00 76 1023.5
20240617070010 61 203 2.0 6.0 0.00 0.00 0.00 76 1023.6
20240617065510 61 180 1.0 4.0 0.00 0.00 0.00 76 1023.7
20240617065009 61 225 1.0 3.0 0.00 0.00 0.00 76 1023.6
20240617064510 61 158 1.0 5.0 0.00 0.00 0.00 76 1023.6
20240617064010 61 158 2.0 5.0 0.00 0.00 0.00 76 1023.7
20240617063540 61 180 2.0 4.0 0.00 0.00 0.00 76 1023.6
20240617063010 61 203 2.0 6.0 0.00 0.00 0.00 76 1023.7
20240617062510 61 203 2.0 5.0 0.00 0.00 0.00 76 1023.7
20240617062010 61 158 1.0 5.0 0.00 0.00 0.00 76 1023.7
20240617061510 61 203 1.0 3.0 0.00 0.00 0.00 76 1023.7
20240617061040 61 203 1.0 4.0 0.00 0.00 0.00 76 1023.6
20240617060540 61 180 1.0 3.0 0.00 0.00 0.00 76 1023.6
20240617060010 61 203 2.0 4.0 0.00 0.00 0.00 76 1023.5
20240617055510 61 180 1.0 3.0 0.00 0.00 0.00 75 1023.7
20240617055009 61 203 1.0 3.0 0.00 0.00 0.00 75 1023.6
20240617054540 61 180 3.0 6.0 0.00 0.00 0.00 75 1023.6
20240617054009 61 180 2.0 7.0 0.00 0.00 0.00 75 1023.6
20240617053509 61 203 2.0 7.0 0.00 0.00 0.00 74 1023.7
20240617053010 61 203 3.0 8.0 0.00 0.00 0.00 74 1023.6
20240617052510 61 203 3.0 9.0 0.00 0.00 0.00 74 1023.5
20240617052009 61 180 3.0 6.0 0.00 0.00 0.00 74 1023.6
20240617051540 61 203 3.0 10.0 0.00 0.00 0.00 73 1023.5
20240617051009 62 203 5.0 10.0 0.00 0.00 0.00 73 1023.6
20240617050509 61 203 3.0 6.0 0.00 0.00 0.00 73 1023.6
20240617050010 61 180 3.0 7.0 0.00 0.00 0.00 73 1023.5
20240617045509 61 203 2.0 6.0 0.00 0.00 0.00 73 1023.6
20240617045009 61 203 2.0 6.0 0.00 0.00 0.00 73 1023.7
20240617044509 61 203 3.0 8.0 0.00 0.00 0.00 73 1023.7
20240617044009 61 203 2.0 7.0 0.00 0.00 0.00 73 1023.7
20240617043510 61 203 2.0 6.0 0.00 0.00 0.00 73 1023.6
20240617043009 61 203 2.0 4.0 0.00 0.00 0.00 73 1023.5
20240617042510 62 180 2.0 7.0 0.00 0.00 0.00 72 1023.5
20240617042009 62 203 2.0 6.0 0.00 0.00 0.00 72 1023.4
20240617041539 62 203 3.0 6.0 0.00 0.00 0.00 72 1023.5
20240617041009 62 203 3.0 9.0 0.00 0.00 0.00 72 1023.5
20240617040509 62 180 2.0 8.0 0.00 0.00 0.00 72 1023.6
20240617040038 62 203 3.0 7.0 0.00 0.00 0.00 71 1023.5
20240617035509 63 203 4.0 9.0 0.00 0.00 0.00 71 1023.5
20240617035009 63 203 3.0 7.0 0.00 0.00 0.00 71 1023.5
20240617034509 63 203 4.0 11.0 0.00 0.00 0.00 71 1023.7
20240617034039 63 203 3.0 7.0 0.00 0.00 0.00 71 1023.8
20240617033609 63 180 4.0 8.0 0.00 0.00 0.00 71 1023.7
20240617033009 63 203 4.0 9.0 0.00 0.00 0.00 72 1023.6
20240617032509 63 203 3.0 8.0 0.00 0.00 0.00 71 1023.6
20240617032009 63 203 3.0 9.0 0.00 0.00 0.00 71 1023.6
20240617031540 63 203 4.0 8.0 0.00 0.00 0.00 71 1023.5
20240617031009 63 180 3.0 7.0 0.00 0.00 0.00 70 1023.6
20240617030509 63 203 4.0 9.0 0.00 0.00 0.00 70 1023.7
20240617030010 63 203 3.0 8.0 0.00 0.00 0.00 69 1023.6
20240617025509 63 203 4.0 9.0 0.00 0.00 0.00 68 1023.6
20240617025009 63 180 4.0 7.0 0.00 0.00 0.00 67 1023.6
20240617024509 63 203 3.0 5.0 0.00 0.00 0.00 67 1023.7
20240617024009 64 203 3.0 7.0 0.00 0.00 0.00 66 1023.6
20240617023509 64 203 3.0 6.0 0.00 0.00 0.00 66 1023.7
20240617023009 64 203 3.0 8.0 0.00 0.00 0.00 66 1023.6
20240617022509 64 180 4.0 8.0 0.00 0.00 0.00 65 1023.7
20240617022009 64 203 3.0 8.0 0.00 0.00 0.00 64 1023.6
20240617021509 64 180 4.0 11.0 0.00 0.00 0.00 65 1023.7
20240617021009 64 180 3.0 9.0 0.00 0.00 0.00 64 1023.6
20240617020509 65 203 4.0 9.0 0.00 0.00 0.00 64 1023.6
20240617020009 65 203 3.0 7.0 0.00 0.00 0.00 64 1023.7
20240617015539 65 135 2.0 5.0 0.00 0.00 0.00 64 1023.7
20240617015009 65 203 3.0 6.0 0.00 0.00 0.00 63 1023.7
20240617014509 65 180 4.0 10.0 0.00 0.00 0.00 63 1023.7
20240617014009 65 180 4.0 9.0 0.00 0.00 0.00 63 1023.8
20240617013610 65 180 5.0 10.0 0.00 0.00 0.00 63 1023.6
20240617013009 65 203 2.0 6.0 0.00 0.00 0.00 64 1023.5
20240617012509 65 225 3.0 7.0 0.00 0.00 0.00 64 1023.5
20240617012009 65 158 2.0 5.0 0.00 0.00 0.00 63 1023.6
20240617011509 65 203 2.0 6.0 0.00 0.00 0.00 62 1023.5
20240617011110 65 180 2.0 6.0 0.00 0.00 0.00 62 1023.4
20240617010509 66 158 2.0 6.0 0.00 0.00 0.00 62 1023.4
20240617010009 66 135 2.0 5.0 0.00 0.00 0.00 61 1023.4
20240617005509 66 135 3.0 7.0 0.00 0.00 0.00 61 1023.3
20240617005009 66 135 3.0 8.0 0.00 0.00 0.00 61 1023.3
20240617004509 66 158 4.0 10.0 0.00 0.00 0.00 61 1023.4
20240617004009 66 135 4.0 8.0 0.00 0.00 0.00 60 1023.3
20240617003509 65 158 2.0 5.0 0.00 0.00 0.00 61 1023.3
20240617003039 65 158 2.0 5.0 0.00 0.00 0.00 61 1023.4
20240617002509 65 158 2.0 4.0 0.00 0.00 0.00 61 1023.3
20240617002009 65 158 2.0 7.0 0.00 0.00 0.00 61 1023.3
20240617001509 65 135 2.0 8.0 0.00 0.00 0.00 60 1023.5
20240617001009 65 135 2.0 6.0 0.00 0.00 0.00 60 1023.4